Regional Weather Roundup
Issued by NWS Kansas City/Pleasant Hill, MO

Home | Current Version | Previous Version | Graphics & Text | Print | Product List | Glossary Off
Versions: 1 2 3 4 5 6 7 8 9 10 11 12 13 14 15 16 17 18 19 20 21 22 23 24 25 26 27 28 29 30 31 32 33 34 35 36 37 38 39 40 41 42 43 44 45 46 47 48 49 50

000
ASUS43 KEAX 060510
RWREAX

WEATHER ROUNDUP FOR EASTERN KANSAS AND NORTHWEST MISSOURI
NATIONAL WEATHER SERVICE KANSAS CITY/PLEASANT HILL MO
1100 PM CST THU MAR 05 2015

KSZ040-057-103>105-MOZ028-029-037-043-060600-
...KANSAS CITY METROPOLITAN AREA...

CITY           SKY/WX    TMP DP  RH WIND       PRES   REMARKS
K.C. INTL      CLEAR     22  13  68 S12       30.44F WCI  10
K.C. DOWNTOWN  CLEAR     26  12  55 S7        30.48F WCI  18
LEES SUMMIT    CLEAR     24  12  60 S8        30.47F WCI  15
OLATHE - IXD   CLEAR     23  13  65 S10       30.46F WCI  12
OLATHE - OJC   CLEAR     24  14  65 S12       30.45F WCI  13
LAWRENCE       CLEAR     22  14  71 SE8       30.46F WCI  12

$$

MOZ001>008-011>017-020>025-030>033-038>040-044>046-053-054-060600-
...NORTHERN AND CENTRAL MISSOURI...

CITY           SKY/WX    TMP DP  RH WIND       PRES   REMARKS
ST. JOSEPH     CLEAR     22   9  57 S9        30.45F WCI  12
MOSBY          CLEAR     25  10  54 SE3       30.49F
WARRENSBURG    CLEAR     21  12  68 SE6       30.50F WCI  14
WHITEMAN AFB   CLEAR     21  11  64 S6        30.49F WCI  14
CLINTON        CLEAR     25  14  63 SE6       30.52F WCI  18
SEDALIA        CLEAR     20  10  65 SE7       30.52F WCI  11
WARSAW         NOT AVBL
MARSHALL       CLEAR     23  12  63 SE6       30.54S WCI  16
CHILLICOTHE      N/A     21   9  59 SE3       30.50F
MOBERLY        CLEAR     19  10  68 SE6       30.53F WCI  11
KIRKSVILLE     CLEAR     13   9  84 SE6       30.50F WCI   4

$$

MOZ041-047>049-056>058-063>065-088>090-097-060600-
...EASTERN AND SOUTHERN MISSOURI...

CITY           SKY/WX    TMP DP  RH WIND       PRES   REMARKS
ST. LOUIS INTL CLEAR     17   5  59 E6        30.59F WCI   9
SPIRIT OF STL  CLEAR     17   7  64 CALM      30.59S
COLUMBIA       CLEAR     18   9  68 SE8       30.53F WCI   8
JEFFERSON CITY CLEAR     19   9  65 E6        30.57S WCI  11
MEXICO         CLEAR     16  12  86 S3        30.55S
HANNIBAL       CLEAR     12   0  57 SE3       30.54F
ROLLA          CLEAR     19  10  68 E7        30.51F WCI  10
LEBANON        CLEAR     21   7  53 SE5       30.51F WCI  15
OSAGE BEACH    CLEAR     16   9  73 SE3       30.53F
SPRINGFIELD    CLEAR     21  12  68 SE6       30.51S WCI  13
BRANSON        CLEAR     18  14  86 CALM      30.53F
NEVADA         CLEAR     23  12  63 SE6       30.52S WCI  16
JOPLIN         CLEAR     25  14  63 SE6       30.52R WCI  18
WEST PLAINS    PTCLDY    13   7  77 CALM      30.53F

$$

IAZ060-094-KSZ022-034>040-054-083-096-NEZ052-066-093-060600-
...KANSAS...SOUTHEAST NEBRASKA AND IOWA...

CITY           SKY/WX    TMP DP  RH WIND       PRES   REMARKS
TOPEKA         CLEAR     27  13  55 SE10      30.44F WCI  17
MANHATTAN      CLEAR     27  17  66 CALM      30.39F
EMPORIA        CLEAR     26  18  71 S13       30.41F WCI  15
CHANUTE        CLEAR     24  18  77 S7        30.49F WCI  16
WICHITA        PTCLDY    31  20  63 S10       30.43F WCI  22
OMAHA          MOCLDY    25   7  46 S17       30.34F WCI  12
LINCOLN        MOCLDY    27  11  51 S14       30.31F WCI  16
FALLS CITY     CLEAR     24  10  55 S10       30.39F WCI  14
LAMONI         CLEAR     18   6  59 S7        30.42F WCI   9
DES MOINES     PTCLDY    17   4  56 SE9       30.42F WCI   6

$$




USA.gov is the U.S. government's official web portal to all federal, state and local government web resources and services.